Location: Madden
(51.3728°N, 114.3297°W)
Time: 10:57:47
(UTC+00:00)

Envisat - Pass Details

Date: 21 April 2024
Orbit: 762 x 764 km, 98.3° (Epoch: 26 May)

Event Time Altitude Azimuth Distance (km) Brightness Sun altitude
Rises 11:37:55 0° 12° (NNE) 3,243 6.9 -7.8°
Reaches altitude 10° 11:40:15 10° 8° (N) 2,312 6.1 -7.5°
Maximum altitude 11:45:15 59° 291° (WNW) 882 3.2 -6.9°
Drops below altitude 10° 11:50:13 10° 212° (SSW) 2,295 4.9 -6.2°
Enters shadow 11:52:03 - 209° (SSW) 3,027 5.6 -5.9°
